Airfield :
LOGIN :

Register | Disclaimer

   EN    FR    IT 

 










Legend :    VFR   Marginal VFR   IFR   Intensive IFR   Very Intensive IFR
Visi :
Ceiling :
>= 8 km
>= 3000ft
5 to 8 km
1000 to 3000 ft
1500m to 5 km
500 to 1000 ft
800 to 1500m
200 to 500 ft
< 800m
< 200 ft
Symbols :   Thunderstorms  Fog  Heavy snow  Heavy precipitations  Wind > 20 kt
SIGMETs :     Misc.  Thunderstorms  Icing  Turbulence  Mountain Waves  Volcanic Ashes






- Airport Elevation : 38 ft
- IATA code : ADX


EGQL - RAF Leuchars

CURRENT METAR :
  • 051450Z 13020KT CAVOK 18/14 Q0999 BLU

EXPIRED METARs :
  • 051350Z 12017KT CAVOK 18/15 Q1000 BLU
  • 051250Z 12018KT CAVOK 18/14 Q1001 BLU

TAF TAF EGQL
Valid from the 05 at 15:00 until the 06 at 00:00 UTC


051339Z 0515/0524 12015KT 9999 SCT045
TEMPO 0515/0524 13016G26KT
PROB30
TEMPO 0515/0518 7000 SHRA SCT024
PROB40
TEMPO 0518/0521 -RA SCT010
TEMPO 0521/0524 4000 RA -RADZ SCT010 BKN018



MET'MAP, your aeronautical weather chart ! - Copyright ORBIFLY December 2007 - Disclaimer

ORBIFLY MET'MAP TEAM :

Programming & Development : Alexandra Zaïnal
Concept & original design : Baudouin d'Aumeries
Assistance for programming : Marc-Olivier Méhu
Technical & hardware support : Manuel Goepfert

Contact : metmap@orbifly.com




SOURCES & CREDITS :

   NOAA